Year,Month,Day,Hour,Minute,Value (Times are PST for temperature in C)
2018,09,17,00,00,11.60
2018,09,17,00,01,11.60
2018,09,17,00,02,11.60
2018,09,17,00,03,11.60
2018,09,17,00,04,11.60
2018,09,17,00,05,11.60
2018,09,17,00,06,11.60
2018,09,17,00,07,11.50
2018,09,17,00,08,11.50
2018,09,17,00,09,11.50
2018,09,17,00,10,11.50
2018,09,17,00,11,11.40
2018,09,17,00,12,11.40
2018,09,17,00,13,11.40
2018,09,17,00,14,11.40
2018,09,17,00,15,11.40
2018,09,17,00,16,11.40
2018,09,17,00,17,11.40
2018,09,17,00,18,11.40
2018,09,17,00,19,11.40
2018,09,17,00,20,11.40
2018,09,17,00,21,11.40
2018,09,17,00,22,11.40
2018,09,17,00,23,11.40
2018,09,17,00,24,11.40
2018,09,17,00,25,11.40
2018,09,17,00,26,11.40
2018,09,17,00,27,11.40
2018,09,17,00,28,11.50
2018,09,17,00,29,11.50
2018,09,17,00,30,11.50
2018,09,17,00,31,11.50
2018,09,17,00,32,11.50
2018,09,17,00,33,11.50
2018,09,17,00,34,11.50
2018,09,17,00,35,11.50
2018,09,17,00,36,11.50
2018,09,17,00,37,11.40
2018,09,17,00,38,11.40
2018,09,17,00,39,11.40
2018,09,17,00,40,11.40
2018,09,17,00,41,11.40
2018,09,17,00,42,11.50
2018,09,17,00,43,11.50
2018,09,17,00,44,11.50
2018,09,17,00,45,11.50
2018,09,17,00,46,11.50
2018,09,17,00,47,11.50
2018,09,17,00,48,11.50
2018,09,17,00,49,11.50
2018,09,17,00,50,11.50
2018,09,17,00,51,11.50
2018,09,17,00,52,11.50
2018,09,17,00,53,11.50
2018,09,17,00,54,11.50
2018,09,17,00,55,11.50
2018,09,17,00,56,11.50
2018,09,17,00,57,11.50
2018,09,17,00,58,11.50
2018,09,17,00,59,11.50
2018,09,17,01,00,11.50
2018,09,17,01,01,11.50
2018,09,17,01,02,11.50
2018,09,17,01,03,11.50
2018,09,17,01,04,11.50
2018,09,17,01,05,11.50
2018,09,17,01,06,11.50
2018,09,17,01,07,11.50
2018,09,17,01,08,11.50
2018,09,17,01,09,11.50
2018,09,17,01,10,11.40
2018,09,17,01,11,11.40
2018,09,17,01,12,11.40
2018,09,17,01,13,11.40
2018,09,17,01,14,11.40
2018,09,17,01,15,11.30
2018,09,17,01,16,11.30
2018,09,17,01,17,11.30
2018,09,17,01,18,11.30
2018,09,17,01,19,11.30
2018,09,17,01,20,11.20
2018,09,17,01,21,11.20
2018,09,17,01,22,11.20
2018,09,17,01,23,11.20
2018,09,17,01,24,11.20
2018,09,17,01,25,11.20
2018,09,17,01,26,11.10
2018,09,17,01,27,11.10
2018,09,17,01,28,11.10
2018,09,17,01,29,11.10
2018,09,17,01,30,11.10
2018,09,17,01,31,11.10
2018,09,17,01,32,11.10
2018,09,17,01,33,11.00
2018,09,17,01,34,11.00
2018,09,17,01,35,11.00
2018,09,17,01,36,10.90
2018,09,17,01,37,10.90
2018,09,17,01,38,10.90
2018,09,17,01,39,10.80
2018,09,17,01,40,10.80
2018,09,17,01,41,10.80
2018,09,17,01,42,10.80
2018,09,17,01,43,10.80
2018,09,17,01,44,10.80
2018,09,17,01,45,10.80
2018,09,17,01,46,10.80
2018,09,17,01,47,10.80
2018,09,17,01,48,10.80
2018,09,17,01,49,10.80
2018,09,17,01,50,10.80
2018,09,17,01,51,10.80
2018,09,17,01,52,10.80
2018,09,17,01,53,10.80
2018,09,17,01,54,10.80
2018,09,17,01,55,10.80
2018,09,17,01,56,10.70
2018,09,17,01,57,10.70
2018,09,17,01,58,10.70
2018,09,17,01,59,10.70
2018,09,17,02,00,10.70
2018,09,17,02,01,10.70
2018,09,17,02,02,10.70
2018,09,17,02,03,10.70
2018,09,17,02,04,10.70
2018,09,17,02,05,10.70
2018,09,17,02,06,10.60
2018,09,17,02,07,10.60
2018,09,17,02,08,10.60
2018,09,17,02,09,10.60
2018,09,17,02,10,10.60
2018,09,17,02,11,10.60
2018,09,17,02,12,10.60
2018,09,17,02,13,10.60
2018,09,17,02,14,10.60
2018,09,17,02,15,10.60
2018,09,17,02,16,10.60
2018,09,17,02,17,10.60
2018,09,17,02,18,10.60
2018,09,17,02,19,10.50
2018,09,17,02,20,10.50
2018,09,17,02,21,10.50
2018,09,17,02,22,10.40
2018,09,17,02,23,10.40
2018,09,17,02,24,10.40
2018,09,17,02,25,10.40
2018,09,17,02,26,10.50
2018,09,17,02,27,10.50
2018,09,17,02,28,10.50
2018,09,17,02,29,10.50
2018,09,17,02,30,10.60
2018,09,17,02,31,10.60
2018,09,17,02,32,10.60
2018,09,17,02,33,10.60
2018,09,17,02,34,10.60
2018,09,17,02,35,10.60
2018,09,17,02,36,10.60
2018,09,17,02,37,10.60
2018,09,17,02,38,10.60
2018,09,17,02,39,10.60
2018,09,17,02,40,10.60
2018,09,17,02,41,10.60
2018,09,17,02,42,10.70
2018,09,17,02,43,10.70
2018,09,17,02,44,10.70
2018,09,17,02,45,10.70
2018,09,17,02,46,10.70
2018,09,17,02,47,10.70
2018,09,17,02,48,10.70
2018,09,17,02,49,10.70
2018,09,17,02,50,10.70
2018,09,17,02,51,10.70
2018,09,17,02,52,10.70
2018,09,17,02,53,10.70
2018,09,17,02,54,10.70
2018,09,17,02,55,10.70
2018,09,17,02,56,10.60
2018,09,17,02,57,10.60
2018,09,17,02,58,10.60
2018,09,17,02,59,10.60
2018,09,17,03,00,10.60
2018,09,17,03,01,10.60
2018,09,17,03,02,10.60
2018,09,17,03,03,10.50
2018,09,17,03,04,10.50
2018,09,17,03,05,10.50
2018,09,17,03,06,10.40
2018,09,17,03,07,10.40
2018,09,17,03,08,10.40
2018,09,17,03,09,10.40
2018,09,17,03,10,10.40
2018,09,17,03,11,10.40
2018,09,17,03,12,10.40
2018,09,17,03,13,10.40
2018,09,17,03,14,10.40
2018,09,17,03,15,10.40
2018,09,17,03,16,10.40
2018,09,17,03,17,10.40
2018,09,17,03,18,10.40
2018,09,17,03,19,10.40
2018,09,17,03,20,10.40
2018,09,17,03,21,10.40
2018,09,17,03,22,10.30
2018,09,17,03,23,10.40
2018,09,17,03,24,10.30
2018,09,17,03,25,10.30
2018,09,17,03,26,10.30
2018,09,17,03,27,10.30
2018,09,17,03,28,10.30
2018,09,17,03,29,10.30
2018,09,17,03,30,10.30
2018,09,17,03,31,10.30
2018,09,17,03,32,10.30
2018,09,17,03,33,10.20
2018,09,17,03,34,10.20
2018,09,17,03,35,10.20
2018,09,17,03,36,10.20
2018,09,17,03,37,10.20
2018,09,17,03,38,10.20
2018,09,17,03,39,10.20
2018,09,17,03,40,10.20
2018,09,17,03,41,10.20
2018,09,17,03,42,10.20
2018,09,17,03,43,10.20
2018,09,17,03,44,10.20
2018,09,17,03,45,10.20
2018,09,17,03,46,10.20
2018,09,17,03,47,10.20
2018,09,17,03,48,10.20
2018,09,17,03,49,10.20
2018,09,17,03,50,10.20
2018,09,17,03,51,10.20
2018,09,17,03,52,10.20
2018,09,17,03,53,10.20
2018,09,17,03,54,10.20
2018,09,17,03,55,10.20
2018,09,17,03,56,10.20
2018,09,17,03,57,10.20
2018,09,17,03,58,10.20
2018,09,17,03,59,10.20
2018,09,17,04,00,10.20
2018,09,17,04,01,10.30
2018,09,17,04,02,10.30
2018,09,17,04,03,10.30
2018,09,17,04,04,10.30
2018,09,17,04,05,10.30
2018,09,17,04,06,10.20
2018,09,17,04,07,10.20
2018,09,17,04,08,10.20
2018,09,17,04,09,10.20
2018,09,17,04,10,10.20
2018,09,17,04,11,10.10
2018,09,17,04,12,10.10
2018,09,17,04,13,10.10
2018,09,17,04,14,10.10
2018,09,17,04,15,10.10
2018,09,17,04,16,10.10
2018,09,17,04,17,10.10
2018,09,17,04,18,10.10
2018,09,17,04,19,10.10
2018,09,17,04,20,10.10
2018,09,17,04,21,10.10
2018,09,17,04,22,10.10
2018,09,17,04,23,10.10
2018,09,17,04,24,10.10
2018,09,17,04,25,10.10
2018,09,17,04,26,10.10
2018,09,17,04,27,10.10
2018,09,17,04,28,10.10
2018,09,17,04,29,10.10
2018,09,17,04,30,10.10
2018,09,17,04,31,10.20
2018,09,17,04,32,10.20
2018,09,17,04,33,10.20
2018,09,17,04,34,10.30
2018,09,17,04,35,10.30
2018,09,17,04,36,10.30
2018,09,17,04,37,10.30
2018,09,17,04,38,10.30
2018,09,17,04,39,10.30
2018,09,17,04,40,10.30
2018,09,17,04,41,10.30
2018,09,17,04,42,10.30
2018,09,17,04,43,10.30
2018,09,17,04,44,10.20
2018,09,17,04,45,10.20
2018,09,17,04,46,10.20
2018,09,17,04,47,10.20
2018,09,17,04,48,10.20
2018,09,17,04,49,10.20
2018,09,17,04,50,10.20
2018,09,17,04,51,10.20
2018,09,17,04,52,10.20
2018,09,17,04,53,10.20
2018,09,17,04,54,10.20
2018,09,17,04,55,10.20
2018,09,17,04,56,10.20
2018,09,17,04,57,10.10
2018,09,17,04,58,10.10
2018,09,17,04,59,10.10
2018,09,17,05,00,10.10
2018,09,17,05,01,10.10
2018,09,17,05,02,10.10
2018,09,17,05,03,10.00
2018,09,17,05,04,10.00
2018,09,17,05,05,9.90
2018,09,17,05,06,9.90
2018,09,17,05,07,9.90
2018,09,17,05,08,9.90
2018,09,17,05,09,9.90
2018,09,17,05,10,9.80
2018,09,17,05,11,9.80
2018,09,17,05,12,9.80
2018,09,17,05,13,9.80
2018,09,17,05,14,9.80
2018,09,17,05,15,9.80
2018,09,17,05,16,9.80
2018,09,17,05,17,9.80
2018,09,17,05,18,9.80
2018,09,17,05,19,9.80
2018,09,17,05,20,9.80
2018,09,17,05,21,9.80
2018,09,17,05,22,9.80
2018,09,17,05,23,9.80
2018,09,17,05,24,9.80
2018,09,17,05,25,9.80
2018,09,17,05,26,9.80
2018,09,17,05,27,9.80
2018,09,17,05,28,9.80
2018,09,17,05,29,9.80
2018,09,17,05,30,9.80
2018,09,17,05,31,9.90
2018,09,17,05,32,9.90
2018,09,17,05,33,9.90
2018,09,17,05,34,9.90
2018,09,17,05,35,9.90
2018,09,17,05,36,9.90
2018,09,17,05,37,9.90
2018,09,17,05,38,10.00
2018,09,17,05,39,10.00
2018,09,17,05,40,10.00
2018,09,17,05,41,10.00
2018,09,17,05,42,10.00
2018,09,17,05,43,9.90
2018,09,17,05,44,9.90
2018,09,17,05,45,9.90
2018,09,17,05,46,9.90
2018,09,17,05,47,9.90
2018,09,17,05,48,9.90
2018,09,17,05,49,9.80
2018,09,17,05,50,9.80
2018,09,17,05,51,9.80
2018,09,17,05,52,9.80
2018,09,17,05,53,9.80
2018,09,17,05,54,9.80
2018,09,17,05,55,9.80
2018,09,17,05,56,9.80
2018,09,17,05,57,9.80
2018,09,17,05,58,9.80
2018,09,17,05,59,9.80
2018,09,17,06,00,9.80
2018,09,17,06,01,9.80
2018,09,17,06,02,9.80
2018,09,17,06,03,9.80
2018,09,17,06,04,9.80
2018,09,17,06,05,9.70
2018,09,17,06,06,9.70
2018,09,17,06,07,9.70
2018,09,17,06,08,9.70
2018,09,17,06,09,9.70
2018,09,17,06,10,9.70
2018,09,17,06,11,9.70
2018,09,17,06,12,9.70
2018,09,17,06,13,9.70
2018,09,17,06,14,9.70
2018,09,17,06,15,9.70
2018,09,17,06,16,9.70
2018,09,17,06,17,9.80
2018,09,17,06,18,9.80
2018,09,17,06,19,9.70
2018,09,17,06,20,9.80
2018,09,17,06,21,9.80
2018,09,17,06,22,9.80
2018,09,17,06,23,9.80
2018,09,17,06,24,9.80
2018,09,17,06,25,9.80
2018,09,17,06,26,9.80
2018,09,17,06,27,9.80
2018,09,17,06,28,9.80
2018,09,17,06,29,9.80
2018,09,17,06,30,9.80
2018,09,17,06,31,9.80
2018,09,17,06,32,9.80
2018,09,17,06,33,9.70
2018,09,17,06,34,9.70
2018,09,17,06,35,9.70
2018,09,17,06,36,9.70
2018,09,17,06,37,9.80
2018,09,17,06,38,9.70
2018,09,17,06,39,9.80
2018,09,17,06,40,9.80
2018,09,17,06,41,9.80
2018,09,17,06,42,9.80
2018,09,17,06,43,9.80
2018,09,17,06,44,9.80
2018,09,17,06,45,9.80
2018,09,17,06,46,9.80
2018,09,17,06,47,9.80
2018,09,17,06,48,9.80
2018,09,17,06,49,9.80
2018,09,17,06,50,9.80
2018,09,17,06,51,9.70
2018,09,17,06,52,9.70
2018,09,17,06,53,9.70
2018,09,17,06,54,9.70
2018,09,17,06,55,9.60
2018,09,17,06,56,9.60
2018,09,17,06,57,9.60
2018,09,17,06,58,9.60
2018,09,17,06,59,9.60
2018,09,17,07,00,9.60
2018,09,17,07,01,9.60
2018,09,17,07,02,9.50
2018,09,17,07,03,9.50
2018,09,17,07,04,9.50
2018,09,17,07,05,9.50
2018,09,17,07,06,9.40
2018,09,17,07,07,9.40
2018,09,17,07,08,9.40
2018,09,17,07,09,9.40
2018,09,17,07,10,9.30
2018,09,17,07,11,9.30
2018,09,17,07,12,9.30
2018,09,17,07,13,9.20
2018,09,17,07,14,9.20
2018,09,17,07,15,9.20
2018,09,17,07,16,9.20
2018,09,17,07,17,9.20
2018,09,17,07,18,9.10
2018,09,17,07,19,9.00
2018,09,17,07,20,8.90
2018,09,17,07,21,8.80
2018,09,17,07,22,8.70
2018,09,17,07,23,8.70
2018,09,17,07,24,8.70
2018,09,17,07,25,8.70
2018,09,17,07,26,8.70
2018,09,17,07,27,8.70
2018,09,17,07,28,8.70
2018,09,17,07,29,8.70
2018,09,17,07,30,8.80
2018,09,17,07,31,8.80
2018,09,17,07,32,8.80
2018,09,17,07,33,8.90
2018,09,17,07,34,8.90
2018,09,17,07,35,8.90
2018,09,17,07,36,9.00
2018,09,17,07,37,9.00
2018,09,17,07,38,9.10
2018,09,17,07,39,9.10
2018,09,17,07,40,9.10
2018,09,17,07,41,9.10
2018,09,17,07,42,9.20
2018,09,17,07,43,9.20
2018,09,17,07,44,9.20
2018,09,17,07,45,9.30
2018,09,17,07,46,9.30
2018,09,17,07,47,9.30
2018,09,17,07,48,9.40
2018,09,17,07,49,9.40
2018,09,17,07,50,9.40
2018,09,17,07,51,9.40
2018,09,17,07,52,9.40
2018,09,17,07,53,9.50
2018,09,17,07,54,9.50
2018,09,17,07,55,9.60
2018,09,17,07,56,9.60
2018,09,17,07,57,9.60
2018,09,17,07,58,9.70
2018,09,17,07,59,9.70
2018,09,17,08,00,9.70
2018,09,17,08,01,9.70
2018,09,17,08,02,9.80
2018,09,17,08,03,9.80
2018,09,17,08,04,9.80
2018,09,17,08,05,9.90
2018,09,17,08,06,9.90
2018,09,17,08,07,9.90
2018,09,17,08,08,10.00
2018,09,17,08,09,10.00
2018,09,17,08,10,10.10
2018,09,17,08,11,10.10
2018,09,17,08,12,10.10
2018,09,17,08,13,10.10
2018,09,17,08,14,10.20
2018,09,17,08,15,10.20
2018,09,17,08,16,10.20
2018,09,17,08,17,10.30
2018,09,17,08,18,10.30
2018,09,17,08,19,10.30
2018,09,17,08,20,10.30
2018,09,17,08,21,10.30
2018,09,17,08,22,10.40
2018,09,17,08,23,10.40
2018,09,17,08,24,10.40
2018,09,17,08,25,10.40
2018,09,17,08,26,10.50
2018,09,17,08,27,10.50
2018,09,17,08,28,10.50
2018,09,17,08,29,10.60
2018,09,17,08,30,10.60
2018,09,17,08,31,10.60
2018,09,17,08,32,10.60
2018,09,17,08,33,10.70
2018,09,17,08,34,10.70
2018,09,17,08,35,10.70
2018,09,17,08,36,10.70
2018,09,17,08,37,10.80
2018,09,17,08,38,10.80
2018,09,17,08,39,10.80
2018,09,17,08,40,10.90
2018,09,17,08,41,10.90
2018,09,17,08,42,10.90
2018,09,17,08,43,11.00
2018,09,17,08,44,11.00
2018,09,17,08,45,11.10
2018,09,17,08,46,11.10
2018,09,17,08,47,11.20
2018,09,17,08,48,11.20
2018,09,17,08,49,11.30
2018,09,17,08,50,11.30
2018,09,17,08,51,11.30
2018,09,17,08,52,11.40
2018,09,17,08,53,11.40
2018,09,17,08,54,11.50
2018,09,17,08,55,11.50
2018,09,17,08,56,11.60
2018,09,17,08,57,11.60
2018,09,17,08,58,11.60
2018,09,17,08,59,11.70
2018,09,17,09,00,11.70
2018,09,17,09,01,11.70
2018,09,17,09,02,11.70
2018,09,17,09,03,11.80
2018,09,17,09,04,11.80
2018,09,17,09,05,11.80
2018,09,17,09,06,11.90
2018,09,17,09,07,12.00
2018,09,17,09,08,12.00
2018,09,17,09,09,12.10
2018,09,17,09,10,12.10
2018,09,17,09,11,12.10
2018,09,17,09,12,12.20
2018,09,17,09,13,12.20
2018,09,17,09,14,12.30
2018,09,17,09,15,12.30
2018,09,17,09,16,12.30
2018,09,17,09,17,12.30
2018,09,17,09,18,12.30
2018,09,17,09,19,12.30
2018,09,17,09,20,12.40
2018,09,17,09,21,12.40
2018,09,17,09,22,12.40
2018,09,17,09,23,12.40
2018,09,17,09,24,12.50
2018,09,17,09,25,12.50
2018,09,17,09,26,12.50
2018,09,17,09,27,12.60
2018,09,17,09,28,12.60
2018,09,17,09,29,12.70
2018,09,17,09,30,12.80
2018,09,17,09,31,12.90
2018,09,17,09,32,12.90
2018,09,17,09,33,12.90
2018,09,17,09,34,12.90
2018,09,17,09,35,13.00
2018,09,17,09,36,13.00
2018,09,17,09,37,13.00
2018,09,17,09,38,13.10
2018,09,17,09,39,13.10
2018,09,17,09,40,13.10
2018,09,17,09,41,13.20
2018,09,17,09,42,13.20
2018,09,17,09,43,13.20
2018,09,17,09,44,13.30
2018,09,17,09,45,13.40
2018,09,17,09,46,13.40
2018,09,17,09,47,13.40
2018,09,17,09,48,13.50
2018,09,17,09,49,13.50
2018,09,17,09,50,13.60
2018,09,17,09,51,13.80
2018,09,17,09,52,13.90
2018,09,17,09,53,14.00
2018,09,17,09,54,14.10
2018,09,17,09,55,14.20
2018,09,17,09,56,14.20
2018,09,17,09,57,14.10
2018,09,17,09,58,14.10
2018,09,17,09,59,14.10
2018,09,17,10,00,14.20
2018,09,17,10,01,14.20
2018,09,17,10,02,14.30
2018,09,17,10,03,14.40
2018,09,17,10,04,14.30
2018,09,17,10,05,14.20
2018,09,17,10,06,14.10
2018,09,17,10,07,14.00
2018,09,17,10,08,13.90
2018,09,17,10,09,13.90
2018,09,17,10,10,13.90
2018,09,17,10,11,13.80
2018,09,17,10,12,13.90
2018,09,17,10,13,13.90
2018,09,17,10,14,13.80
2018,09,17,10,15,13.80
2018,09,17,10,16,13.70
2018,09,17,10,17,13.70
2018,09,17,10,18,13.70
2018,09,17,10,19,13.70
2018,09,17,10,20,13.80
2018,09,17,10,21,13.90
2018,09,17,10,22,13.90
2018,09,17,10,23,13.90
2018,09,17,10,24,13.90
2018,09,17,10,25,14.00
2018,09,17,10,26,14.00
2018,09,17,10,27,14.00
2018,09,17,10,28,14.00
2018,09,17,10,29,14.10
2018,09,17,10,30,14.10
2018,09,17,10,31,14.00
2018,09,17,10,32,14.00
2018,09,17,10,33,13.90
2018,09,17,10,34,13.90
2018,09,17,10,35,14.00
2018,09,17,10,36,14.00
2018,09,17,10,37,14.00
2018,09,17,10,38,13.90
2018,09,17,10,39,13.90
2018,09,17,10,40,13.90
2018,09,17,10,41,13.90
2018,09,17,10,42,13.90
2018,09,17,10,43,14.00
2018,09,17,10,44,14.00
2018,09,17,10,45,14.10
2018,09,17,10,46,14.10
2018,09,17,10,47,14.20
2018,09,17,10,48,14.20
2018,09,17,10,49,14.30
2018,09,17,10,50,14.30
2018,09,17,10,51,14.30
2018,09,17,10,52,14.40
2018,09,17,10,53,14.40
2018,09,17,10,54,14.40
2018,09,17,10,55,14.50
2018,09,17,10,56,14.50
2018,09,17,10,57,14.60
2018,09,17,10,58,14.70
2018,09,17,10,59,14.70
2018,09,17,11,00,14.70
2018,09,17,11,01,14.70
2018,09,17,11,02,14.70
2018,09,17,11,03,14.60
2018,09,17,11,04,14.60
2018,09,17,11,05,14.60
2018,09,17,11,06,14.70
2018,09,17,11,07,14.70
2018,09,17,11,08,14.70
2018,09,17,11,09,14.80
2018,09,17,11,10,14.80
2018,09,17,11,11,14.80
2018,09,17,11,12,14.80
2018,09,17,11,13,14.80
2018,09,17,11,14,14.80
2018,09,17,11,15,14.90
2018,09,17,11,16,14.90
2018,09,17,11,17,14.80
2018,09,17,11,18,14.80
2018,09,17,11,19,14.80
2018,09,17,11,20,14.80
2018,09,17,11,21,14.90
2018,09,17,11,22,14.90
2018,09,17,11,23,14.90
2018,09,17,11,24,15.00
2018,09,17,11,25,15.10
2018,09,17,11,26,15.20
2018,09,17,11,27,15.20
2018,09,17,11,28,15.20
2018,09,17,11,29,15.30
2018,09,17,11,30,15.30
2018,09,17,11,31,15.30
2018,09,17,11,32,15.40
2018,09,17,11,33,15.40
2018,09,17,11,34,15.40
2018,09,17,11,35,15.40
2018,09,17,11,36,15.40
2018,09,17,11,37,15.50
2018,09,17,11,38,15.50
2018,09,17,11,39,15.40
2018,09,17,11,40,15.30
2018,09,17,11,41,15.20
2018,09,17,11,42,15.10
2018,09,17,11,43,15.00
2018,09,17,11,44,15.00
2018,09,17,11,45,15.00
2018,09,17,11,46,15.00
2018,09,17,11,47,15.00
2018,09,17,11,48,14.90
2018,09,17,11,49,14.80
2018,09,17,11,50,14.80
2018,09,17,11,51,14.90
2018,09,17,11,52,14.90
2018,09,17,11,53,14.90
2018,09,17,11,54,15.00
2018,09,17,11,55,15.00
2018,09,17,11,56,15.00
2018,09,17,11,57,15.00
2018,09,17,11,58,14.90
2018,09,17,11,59,14.80
2018,09,17,12,00,14.80
2018,09,17,12,01,14.80
2018,09,17,12,02,14.70
2018,09,17,12,03,14.70
2018,09,17,12,04,14.70
2018,09,17,12,05,14.70
2018,09,17,12,06,14.80
2018,09,17,12,07,14.80
2018,09,17,12,08,14.70
2018,09,17,12,09,14.70
2018,09,17,12,10,14.60
2018,09,17,12,11,14.50
2018,09,17,12,12,14.50
2018,09,17,12,13,14.50
2018,09,17,12,14,14.60
2018,09,17,12,15,14.60
2018,09,17,12,16,14.70
2018,09,17,12,17,14.60
2018,09,17,12,18,14.60
2018,09,17,12,19,14.60
2018,09,17,12,20,14.60
2018,09,17,12,21,14.70
2018,09,17,12,22,14.80
2018,09,17,12,23,14.90
2018,09,17,12,24,15.00
2018,09,17,12,25,15.10
2018,09,17,12,26,15.10
2018,09,17,12,27,15.00
2018,09,17,12,28,14.90
2018,09,17,12,29,14.80
2018,09,17,12,30,14.70
2018,09,17,12,31,14.60
2018,09,17,12,32,14.50
2018,09,17,12,33,14.40
2018,09,17,12,34,14.40
2018,09,17,12,35,14.40
2018,09,17,12,36,14.50
2018,09,17,12,37,14.60
2018,09,17,12,38,14.80
2018,09,17,12,39,14.80
2018,09,17,12,40,14.80
2018,09,17,12,41,14.70
2018,09,17,12,42,14.70
2018,09,17,12,43,14.70
2018,09,17,12,44,14.70
2018,09,17,12,45,14.70
2018,09,17,12,46,14.60
2018,09,17,12,47,14.40
2018,09,17,12,48,14.30
2018,09,17,12,49,14.00
2018,09,17,12,50,13.80
2018,09,17,12,51,13.70
2018,09,17,12,52,13.60
2018,09,17,12,53,13.50
2018,09,17,12,54,13.50
2018,09,17,12,55,13.40
2018,09,17,12,56,13.40
2018,09,17,12,57,13.30
2018,09,17,12,58,13.40
2018,09,17,12,59,13.50
2018,09,17,13,00,13.60
2018,09,17,13,01,13.80
2018,09,17,13,02,13.80
2018,09,17,13,03,13.80
2018,09,17,13,04,13.70
2018,09,17,13,05,13.60
2018,09,17,13,06,13.50
2018,09,17,13,07,13.40
2018,09,17,13,08,13.40
2018,09,17,13,09,13.50
2018,09,17,13,10,13.50
2018,09,17,13,11,13.50
2018,09,17,13,12,13.50
2018,09,17,13,13,13.50
2018,09,17,13,14,13.60
2018,09,17,13,15,13.80
2018,09,17,13,16,14.00
2018,09,17,13,17,14.10
2018,09,17,13,18,14.20
2018,09,17,13,19,14.30
2018,09,17,13,20,14.20
2018,09,17,13,21,14.10
2018,09,17,13,22,14.00
2018,09,17,13,23,13.90
2018,09,17,13,24,13.80
2018,09,17,13,25,13.80
2018,09,17,13,26,13.80
2018,09,17,13,27,13.80
2018,09,17,13,28,13.80
2018,09,17,13,29,13.80
2018,09,17,13,30,13.80
2018,09,17,13,31,13.80
2018,09,17,13,32,13.80
2018,09,17,13,33,13.80
2018,09,17,13,34,13.80
2018,09,17,13,35,13.90
2018,09,17,13,36,13.90
2018,09,17,13,37,13.90
2018,09,17,13,38,13.90
2018,09,17,13,39,13.80
2018,09,17,13,40,13.90
2018,09,17,13,41,13.90
2018,09,17,13,42,13.90
2018,09,17,13,43,13.90
2018,09,17,13,44,14.00
2018,09,17,13,45,14.10
2018,09,17,13,46,14.20
2018,09,17,13,47,14.20
2018,09,17,13,48,14.30
2018,09,17,13,49,14.30
2018,09,17,13,50,14.20
2018,09,17,13,51,14.20
2018,09,17,13,52,14.30
2018,09,17,13,53,14.40
2018,09,17,13,54,14.50
2018,09,17,13,55,14.60
2018,09,17,13,56,14.60
2018,09,17,13,57,14.70
2018,09,17,13,58,14.80
2018,09,17,13,59,14.80
2018,09,17,14,00,14.80
2018,09,17,14,01,14.70
2018,09,17,14,02,14.70
2018,09,17,14,03,14.70
2018,09,17,14,04,14.80
2018,09,17,14,05,14.90
2018,09,17,14,06,15.00
2018,09,17,14,07,15.00
2018,09,17,14,08,14.90
2018,09,17,14,09,14.80
2018,09,17,14,10,14.60
2018,09,17,14,11,14.50
2018,09,17,14,12,14.40
2018,09,17,14,13,14.30
2018,09,17,14,14,14.30
2018,09,17,14,15,14.20
2018,09,17,14,16,14.20
2018,09,17,14,17,14.20
2018,09,17,14,18,14.30
2018,09,17,14,19,14.40
2018,09,17,14,20,14.30
2018,09,17,14,21,14.30
2018,09,17,14,22,14.30
2018,09,17,14,23,14.40
2018,09,17,14,24,14.40
2018,09,17,14,25,14.40
2018,09,17,14,26,14.40
2018,09,17,14,27,14.40
2018,09,17,14,28,14.30
2018,09,17,14,29,14.30
2018,09,17,14,30,14.30
2018,09,17,14,31,14.40
2018,09,17,14,32,14.40
2018,09,17,14,33,14.40
2018,09,17,14,34,14.30
2018,09,17,14,35,14.40
2018,09,17,14,36,14.50
2018,09,17,14,37,14.50
2018,09,17,14,38,14.60
2018,09,17,14,39,14.60
2018,09,17,14,40,14.60
2018,09,17,14,41,14.60
2018,09,17,14,42,14.60
2018,09,17,14,43,14.50
2018,09,17,14,44,14.50
2018,09,17,14,45,14.50
2018,09,17,14,46,14.40
2018,09,17,14,47,14.40
2018,09,17,14,48,14.40
2018,09,17,14,49,14.40
2018,09,17,14,50,14.40
2018,09,17,14,51,14.50
2018,09,17,14,52,14.60
2018,09,17,14,53,14.60
2018,09,17,14,54,14.70
2018,09,17,14,55,14.70
2018,09,17,14,56,14.70
2018,09,17,14,57,14.70
2018,09,17,14,58,14.80
2018,09,17,14,59,14.90
2018,09,17,15,00,15.00
2018,09,17,15,01,15.10
2018,09,17,15,02,15.10
2018,09,17,15,03,15.00
2018,09,17,15,04,14.90
2018,09,17,15,05,14.90
2018,09,17,15,06,14.90
2018,09,17,15,07,14.80
2018,09,17,15,08,14.80
2018,09,17,15,09,14.90
2018,09,17,15,10,14.90
2018,09,17,15,11,14.90
2018,09,17,15,12,14.90
2018,09,17,15,13,14.90
2018,09,17,15,14,14.90
2018,09,17,15,15,14.90
2018,09,17,15,16,15.00
2018,09,17,15,17,15.00
2018,09,17,15,18,15.10
2018,09,17,15,19,15.20
2018,09,17,15,20,15.10
2018,09,17,15,21,15.00
2018,09,17,15,22,15.00
2018,09,17,15,23,15.00
2018,09,17,15,24,15.00
2018,09,17,15,25,14.90
2018,09,17,15,26,14.90
2018,09,17,15,27,14.90
2018,09,17,15,28,14.90
2018,09,17,15,29,15.00
2018,09,17,15,30,15.10
2018,09,17,15,31,15.10
2018,09,17,15,32,15.20
2018,09,17,15,33,15.20
2018,09,17,15,34,15.30
2018,09,17,15,35,15.30
2018,09,17,15,36,15.30
2018,09,17,15,37,15.30
2018,09,17,15,38,15.30
2018,09,17,15,39,15.40
2018,09,17,15,40,15.40
2018,09,17,15,41,15.50
2018,09,17,15,42,15.60
2018,09,17,15,43,15.60
2018,09,17,15,44,15.60
2018,09,17,15,45,15.60
2018,09,17,15,46,15.50
2018,09,17,15,47,15.40
2018,09,17,15,48,15.30
2018,09,17,15,49,15.30
2018,09,17,15,50,15.20
2018,09,17,15,51,15.20
2018,09,17,15,52,15.10
2018,09,17,15,53,15.00
2018,09,17,15,54,15.00
2018,09,17,15,55,15.00
2018,09,17,15,56,15.00
2018,09,17,15,57,15.00
2018,09,17,15,58,15.10
2018,09,17,15,59,15.10
2018,09,17,16,00,15.10
2018,09,17,16,01,15.00
2018,09,17,16,02,15.00
2018,09,17,16,03,15.00
2018,09,17,16,04,15.00
2018,09,17,16,05,15.00
2018,09,17,16,06,15.10
2018,09,17,16,07,15.10
2018,09,17,16,08,15.10
2018,09,17,16,09,15.10
2018,09,17,16,10,15.20
2018,09,17,16,11,15.20
2018,09,17,16,12,15.20
2018,09,17,16,13,15.10
2018,09,17,16,14,15.10
2018,09,17,16,15,15.10
2018,09,17,16,16,15.10
2018,09,17,16,17,15.10
2018,09,17,16,18,15.10
2018,09,17,16,19,15.10
2018,09,17,16,20,15.00
2018,09,17,16,21,15.00
2018,09,17,16,22,15.00
2018,09,17,16,23,15.00
2018,09,17,16,24,15.00
2018,09,17,16,25,15.00
2018,09,17,16,26,15.00
2018,09,17,16,27,15.00
2018,09,17,16,28,15.00
2018,09,17,16,29,15.00
2018,09,17,16,30,15.10
2018,09,17,16,31,15.10
2018,09,17,16,32,15.20
2018,09,17,16,33,15.30
2018,09,17,16,34,15.30
2018,09,17,16,35,15.20
2018,09,17,16,36,15.20
2018,09,17,16,37,15.20
2018,09,17,16,38,15.20
2018,09,17,16,39,15.10
2018,09,17,16,40,15.10
2018,09,17,16,41,15.00
2018,09,17,16,42,15.00
2018,09,17,16,43,14.90
2018,09,17,16,44,14.90
2018,09,17,16,45,14.90
2018,09,17,16,46,14.90
2018,09,17,16,47,14.90
2018,09,17,16,48,14.90
2018,09,17,16,49,14.90
2018,09,17,16,50,14.90
2018,09,17,16,51,15.00
2018,09,17,16,52,15.00
2018,09,17,16,53,15.00
2018,09,17,16,54,15.00
2018,09,17,16,55,15.00
2018,09,17,16,56,15.10
2018,09,17,16,57,15.00
2018,09,17,16,58,15.00
2018,09,17,16,59,15.00
2018,09,17,17,00,15.00
2018,09,17,17,01,15.10
2018,09,17,17,02,15.10
2018,09,17,17,03,15.10
2018,09,17,17,04,15.00
2018,09,17,17,05,15.00
2018,09,17,17,06,14.90
2018,09,17,17,07,14.90
2018,09,17,17,08,14.80
2018,09,17,17,09,14.90
2018,09,17,17,10,14.90
2018,09,17,17,11,14.90
2018,09,17,17,12,15.00
2018,09,17,17,13,15.00
2018,09,17,17,14,15.00
2018,09,17,17,15,15.00
2018,09,17,17,16,15.10
2018,09,17,17,17,15.10
2018,09,17,17,18,15.00
2018,09,17,17,19,15.00
2018,09,17,17,20,15.00
2018,09,17,17,21,15.00
2018,09,17,17,22,14.90
2018,09,17,17,23,14.90
2018,09,17,17,24,14.90
2018,09,17,17,25,14.90
2018,09,17,17,26,14.90
2018,09,17,17,27,14.80